Flag for Central African Republic Weather past 2 weeks in Bangui, Central African Republic

Now
82 °F

Scattered clouds.


Feels Like: 88 °F
Forecast: 69 / 89 °F
Wind: 12 mph from West

Location: Bangui Airport

Current Time: Aug 30, 2015 at 5:35:50 PM

Latest Report: Aug 30, 2015 at 5:00 PM


Visibility: N/A

Pressure: 29.83 "Hg

Humidity: 74%

Dew point: 73 °F

Location of BanguiLocation

Historic Weather in Bangui — Graph

°F

Bangui temperature yesterday

Maximum temperature yesterday: 86 °F (at 1:00 PM)
Minimum temperature yesterday: 72 °F (at 6:00 AM)
Average temperature yesterday: 78 °F

Past Weeks' High & Low Weather Summary

 TemperatureHumidityPressure
High91 °F (Aug 22, 2:00 PM)100% (Aug 21, 9:00 PM)30.01 "Hg (Aug 21, 9:00 PM)
Low70 °F (Aug 22, 3:00 AM)56% (Aug 28, 1:00 PM)29.74 "Hg (Aug 22, 5:00 PM)
Average78 °F87%29.89 "Hg
* Reported Aug 21 5:00 PM — Aug 30 4:00 PM, Bangui, Weather by CustomWeather, © 2015

Note: Actual official high and low records may vary slightly from our data, if they occured in-between our weather recording intervals... More about our weather records

Advertising

Bangui weather history for previous 24 hours

 ConditionsComfort  
Time TempWeatherWind HumidityBarometerVisibility
4:00 PM
Sun, Aug 30
88 °FScattered clouds.5 mph62%29.83 "HgN/A
11:00 AM88 °FScattered clouds.5 mph62%29.95 "HgN/A
10:00 AM84 °FScattered clouds.5 mph70%29.98 "HgN/A
9:00 AM82 °FScattered clouds.5 mph74%30.01 "HgN/A
8:00 AM79 °FScattered clouds.5 mph84%30.01 "HgN/A
7:00 AM73 °FScattered clouds.3 mph94%29.98 "HgN/A
6:00 AM72 °FThunderstorms. Scattered clouds.5 mph94%29.98 "HgN/A
5:00 AM72 °FThunderstorms. Passing clouds.2 mph100%29.95 "HgN/A
4:00 AM72 °FThunderstorms. Passing clouds.2 mph100%29.98 "HgN/A
3:00 AM72 °FPassing clouds.5 mph94%29.95 "HgN/A
2:00 AM73 °FThunderstorms. Passing clouds.5 mph89%29.92 "HgN/A
1:00 AM75 °FThunderstorms. Passing clouds.10 mph94%29.95 "HgN/A
12:00 AM75 °FThunderstorms. Passing clouds.1 mph100%29.95 "HgN/A
11:00 PM
Sat, Aug 29
77 °FThunderstorms. Passing clouds.No wind94%29.98 "HgN/A
10:00 PM77 °FClear.2 mph94%29.98 "Hg10 mi
9:00 PM77 °FClear.2 mph94%29.95 "Hg10 mi
8:00 PM79 °FClear.2 mph89%29.92 "Hg4 mi
7:00 PM79 °FClear.2 mph89%29.89 "Hg4 mi
6:00 PM84 °FPassing clouds.1 mph70%29.86 "HgN/A
5:00 PM86 °FPassing clouds.1 mph70%29.86 "HgN/A
Weather by CustomWeather, © 2015

See weather overviewHow to use our weather pages